Overview Statistics Trail Chart Weather Telemetry Raw packets
 

This is the latest recevied weather packets stored in our database for station/object KV9E. If no packets are shown the sender has not sent any weather packets the latest 10 day(s).

<< 18 19 20 21 22 23 24 >>
Time Temp. Humidity Pressure Rain* Wind** Luminosity Snow
1788491020 26.67° C 74% 1017.4 hPa 0 mm - 0 W/m² -
1788490715 26.67° C 74% 1017.6 hPa 0 mm - 0 W/m² -
1788490411 26.67° C 73% 1017.8 hPa 0 mm - 0 W/m² -
1788490111 26.67° C 73% 1017.6 hPa 0 mm - 0 W/m² -
1788489806 26.11° C 75% 1017.8 hPa 0 mm - 0 W/m² -
1788489502 26.11° C 76% 1017.5 hPa 0 mm - 0 W/m² -
1788489198 26.11° C 77% 1017.7 hPa 0 mm - 0 W/m² -
1788488897 26.11° C 76% 1017.5 hPa 0 mm - 0 W/m² -
1788488594 25.56° C 77% 1017.6 hPa 0 mm - 0 W/m² -
1788488291 25.56° C 78% 1017.5 hPa 0 mm - 0 W/m² -
1788487990 25.56° C 78% 1017.6 hPa 0 mm - 0 W/m² -
1788487686 26.11° C 78% 1017.4 hPa 0 mm - 0 W/m² -
1788487381 26.11° C 78% 1017.3 hPa 0 mm - 0 W/m² -
1788487079 26.11° C 77% 1017.3 hPa 0 mm - 0 W/m² -
1788486775 26.11° C 77% 1017.3 hPa 0 mm - 0 W/m² -
1788486473 26.11° C 78% 1017.1 hPa 0 mm - 0 W/m² -
1788486169 26.67° C 77% 1017.2 hPa 0 mm - 0 W/m² -
1788485864 26.67° C 76% 1017 hPa 0 mm - 0 W/m² -
1788485560 26.67° C 76% 1017 hPa 0 mm - 0 W/m² -
1788485256 26.67° C 76% 1017 hPa 0 mm - 0 W/m² -
1788484955 26.67° C 77% 1017 hPa 0 mm - 0 W/m² -
1788484655 26.67° C 78% 1017 hPa 0 mm - 0 W/m² -
1788484350 27.22° C 77% 1017.1 hPa 0 mm - 0 W/m² -
1788484045 27.22° C 76% 1017 hPa 0 mm - 0 W/m² -
1788483741 27.22° C 76% 1016.8 hPa 0 mm - 0 W/m² -

* Rain latest hour (hover to see other rain measurements)
** Current wind speed in m/s (hover to see current wind gust speed)